Location: Cardiff
(53.7833°N, 113.6000°W)
Time: 17:26:07
(UTC+00:00)

RS-15 - Pass Details

Date: 03 December 2023
Orbit: 1893 x 2151 km, 64.8° (Epoch: 27 February)

Event Time Altitude Azimuth Distance (km) Brightness Sun altitude
Exits shadow 12:18:53 29° 314° (NW) 3,177 8.7 -27.2°
Maximum altitude 12:25:55 85° 229° (SW) 1,973 7.9 -26.2°
Drops below altitude 10° 12:36:57 10° 143° (SE) 4,297 10.3 -24.5°
Sets 12:40:08 0° 143° (SE) 5,278 10.9 -24.1°
